Weather History for Ft Pierce, FL

Change the Weather History Date:

Sunday, September 15, 2013

  Actual Average Record
Temperature  
Mean Temperature 79 °F -  
Max Temperature 87 °F 89 °F 95 °F (1944)
Min Temperature 72 °F 72 °F 68 °F (1965)
Cooling Degree Days 14    
Growing Degree Days 29 (Base 50)    
Moisture  
Dew Point 73 °F    
Average Humidity 88    
Maximum Humidity 100    
Minimum Humidity 67    
Precipitation  
Precipitation 0.03 in - - ()
Sea Level Pressure  
Sea Level Pressure 30.03 in    
Wind  
Wind Speed 6 mph (ESE)    
Max Wind Speed 17 mph    
Max Gust Speed 20 mph    
Visibility 10 miles    
Events Rain , Thunderstorm    
Averages and records for this station are not official NWS values.
T = Trace of Precipitation, MM = Missing Value Source: NWS Daily Summary

Daily Weather History Graph

Daily Weather History Graph

Search for Another Location

Airport:

Trip Planner

Search our weather history database for the weather conditions in past years. The results will help you decide how hot, cold, wet, or windy it might be!

Date:

Astronomy

Sep. 15, 2013 Rise Set
Actual Time 7:06 AM EDT 7:25 PM EDT
Civil Twilight 6:43 AM EDT 7:49 PM EDT
Nautical Twilight 6:16 AM EDT 8:16 PM EDT
Astronomical Twilight 5:48 AM EDT 8:44 PM EDT
Moon 4:37 PM EDT (9/15) 3:01 AM EDT (9/15)
Length of Visible Light 13h 05m
Length of Day
12h 18m
Waxing Gibbous, 82% of the Moon is Illuminated
Sep 15
Waxing Gibbous
Sep 19
Full
Sep 26
Last Quarter
Oct 4
New
Oct 11
First Quarter

Hourly Weather History & Observations

Time (EDT) Temp. Heat Index Dew Point Humidity Pressure Visibility Wind Dir Wind Speed Gust Speed Precip Events Conditions
12:53 AM 80.1 °F 84.2 °F 73.0 °F 79% 29.97 in 10.0 mi SE 8.1 mph - N/A   Clear
1:53 AM 80.1 °F 84.5 °F 73.9 °F 81% 29.98 in 10.0 mi SE 6.9 mph - N/A   Partly Cloudy
2:25 AM 80.6 °F 86.2 °F 75.2 °F 84% 29.98 in 10.0 mi Calm Calm - N/A   Mostly Cloudy
2:48 AM 77.0 °F - 73.4 °F 89% 29.98 in 10.0 mi Calm Calm - N/A   Scattered Clouds
2:53 AM 75.9 °F - 73.9 °F 94% 29.99 in 9.0 mi WNW 3.5 mph - N/A   Mostly Cloudy
3:51 AM 75.2 °F - 73.4 °F 94% 29.98 in 7.0 mi NNW 4.6 mph - N/A Thunderstorm Clear
3:53 AM 75.0 °F - 73.0 °F 94% 29.99 in 7.0 mi NW 4.6 mph - N/A Thunderstorm Clear
4:08 AM 75.2 °F - 73.4 °F 94% 29.99 in 7.0 mi Calm Calm - N/A   Clear
4:53 AM 75.0 °F - 73.9 °F 96% 29.98 in 9.0 mi North 3.5 mph - N/A   Clear
5:53 AM 73.9 °F - 73.9 °F 100% 29.96 in 8.0 mi North 4.6 mph - N/A   Clear
6:53 AM 73.0 °F - 72.0 °F 96% 29.98 in 10.0 mi Calm Calm - N/A   Clear
7:53 AM 77.0 °F - 75.9 °F 96% 30.01 in 10.0 mi Calm Calm - N/A   Clear
8:51 AM 78.8 °F - 75.2 °F 89% 30.03 in 10.0 mi ESE 5.8 mph - N/A Thunderstorm Thunderstorm
8:53 AM 78.1 °F - 75.0 °F 90% 30.03 in 10.0 mi ESE 5.8 mph - N/A Thunderstorm Thunderstorm
9:34 AM 78.8 °F - 73.4 °F 83% 30.05 in 10.0 mi SE 13.8 mph - N/A Thunderstorm Thunderstorm
9:53 AM 75.0 °F - 73.0 °F 94% 30.06 in 8.0 mi SE 11.5 mph - N/A Thunderstorm Thunderstorm
10:53 AM 75.9 °F - 73.0 °F 91% 30.06 in 10.0 mi Calm Calm - 0.00 in   Mostly Cloudy
11:53 AM 84.0 °F 92.6 °F 75.9 °F 76% 30.05 in 10.0 mi East 13.8 mph 19.6 mph N/A   Partly Cloudy
12:53 PM 86.0 °F 93.8 °F 73.9 °F 67% 30.04 in 10.0 mi ESE 17.3 mph - N/A   Scattered Clouds
1:53 PM 84.9 °F 93.3 °F 75.0 °F 72% 30.03 in 10.0 mi ESE 15.0 mph - N/A   Scattered Clouds
2:53 PM 82.9 °F 89.4 °F 73.9 °F 74% 30.01 in 10.0 mi East 12.7 mph - N/A   Clear
3:53 PM 82.0 °F 88.6 °F 75.0 °F 79% 30.01 in 10.0 mi SE 12.7 mph - N/A   Clear
4:53 PM 82.0 °F 87.9 °F 73.9 °F 76% 30.02 in 10.0 mi ESE 11.5 mph - N/A   Clear
5:53 PM 82.0 °F 87.9 °F 73.9 °F 76% 30.04 in 10.0 mi East 6.9 mph - N/A   Partly Cloudy
6:53 PM 82.0 °F 87.9 °F 73.9 °F 76% 30.04 in 10.0 mi East 6.9 mph - N/A   Scattered Clouds
7:53 PM 75.0 °F - 72.0 °F 90% 30.09 in 6.0 mi South 10.4 mph - 0.01 in Rain Rain
8:02 PM 73.4 °F - 71.6 °F 94% 30.08 in 10.0 mi South 9.2 mph - 0.00 in Rain , Thunderstorm Light Thunderstorms and Rain
8:11 PM 73.4 °F - 69.8 °F 88% 30.08 in 10.0 mi SSW 8.1 mph - 0.01 in Rain , Thunderstorm Light Rain
8:27 PM 73.4 °F - 71.6 °F 94% 30.09 in 10.0 mi SW 4.6 mph - 0.01 in Rain , Thunderstorm Light Rain
8:36 PM 73.4 °F - 69.8 °F 88% 30.09 in 10.0 mi SW 3.5 mph - 0.02 in Rain Light Rain
8:51 PM 73.4 °F - 71.6 °F 94% 30.07 in 10.0 mi Calm Calm - 0.02 in   Partly Cloudy
8:53 PM 73.0 °F - 71.1 °F 93% 30.07 in 10.0 mi Calm Calm - 0.02 in   Partly Cloudy
9:53 PM 73.0 °F - 71.1 °F 93% 30.07 in 10.0 mi Calm Calm - 0.00 in   Partly Cloudy
10:53 PM 72.0 °F - 71.1 °F 97% 30.06 in 10.0 mi Calm Calm - N/A   Clear
11:53 PM 73.9 °F - 73.0 °F 97% 30.05 in 10.0 mi ENE 4.6 mph - N/A   Clear